Orbital Elements at Epoch 2459200.5 (2020-Dec-17.0) TDB
Reference: JPL 16 (heliocentric ecliptic J2000)
Element | Value | Uncertainty (1-sigma) | Units |
e | .1667706318459631 | 5.024e-08 | |
a | 2.749581440515818 | 2.0924e-08 | au |
q | 2.291032006369062 | 1.4213e-07 | au |
i | 31.37930029172305 | 8.7414e-06 | deg |
node | 3.355285364185943 | 8.3979e-06 | deg |
peri | 54.49999167758317 | 2.874e-05 | deg |
M | 214.2932962733857 | 2.5362e-05 | deg |
tp | 2459874.523969394169 (2022-Oct-22.02396939) | 0.00011984 | TDB |
period | 1665.322341223064 4.56 | 1.9009e-05 5.204e-08 | d yr |
n | .2161743652196516 | 2.4676e-09 | deg/d |
Q | 3.208130874662574 | 2.4414e-08 | au |
|
| | Orbit Determination Parameters
Additional Information
|